{"data":{"norad_id":69426,"epoch":"2026-09-20T01:03:57.863808Z","epoch_age_seconds":64865,"freshness":"FRESH","line1":"1 69426U 26126G   26263.04441972  .00013047  00000+0  40603-3 0  9994","line2":"2 69426  97.2849 124.2686 0002146  56.2674 303.8773 15.33421170 17501","mean_motion":15.3342117,"eccentricity":0.0002146,"inclination_deg":97.2849,"raan_deg":124.2686,"arg_perigee_deg":56.2674,"mean_anomaly_deg":303.8773,"bstar":0.00040603,"rev_number":1750,"period_min":93.907663998143,"perigee_km":464.14540772943,"apogee_km":467.08274569156,"semimajor_km":6843.7510767105,"source":"CELESTRAK","updated_at":"2026-09-20T09:00:44.195217Z"}}